{"data":{"norad_id":66168,"intl_designator":"2025-240Y","name":"STARLINK-35578","alt_names":[],"object_type":"PAYLOAD","status":"ACTIVE","operator":null,"country":"US","launch_date":"2025-10-25","launch_site_code":"AFWTR","launch_vehicle":null,"mission":null,"orbit_class":"UNKNOWN","rcs_meters":null,"size_class":null,"mass_kg":null,"dimensions":null,"purposes":["comms"],"wikipedia_slug":null,"has_3d_model":false,"image_url":null,"decayed_at":null,"tle_current":{"epoch":"2026-05-25T04:52:39.956736Z","epoch_age_seconds":60754,"freshness":"FRESH","line1":"1 66168U 25240Y   26145.20324024  .00024793  00000+0  84701-3 0  9992","line2":"2 66168  53.1577  67.3567 0000975 105.1707 254.9402 15.30177323 33704","mean_motion":15.30177323,"eccentricity":9.75e-5,"inclination_deg":53.1577,"raan_deg":67.3567,"arg_perigee_deg":105.1707,"mean_anomaly_deg":254.9402,"bstar":0.00084701,"rev_number":3370,"period_min":94.10674033365,"perigee_km":474.61457126145,"apogee_km":475.95098811849,"semimajor_km":6853.41977969,"source":"CELESTRAK","updated_at":"2026-05-25T13:38:21.073582Z"}}}